Regional Weather Roundup
Issued by NWS Portland, ME

Home | Current Version | Previous Version | Text Only | Print | Product List | Glossary On
Versions: 1 2 3 4 5 6 7 8 9 10 11 12 13 14 15 16 17 18 19 20 21 22 23 24 25 26 27 28 29 30 31 32 33 34 35 36 37 38 39 40 41 42 43 44 45 46 47 48 49 50
000
ASUS41 KGYX 271510
RWRGYX
WEATHER ROUNDUP FOR MAINE AND NEW HAMPSHIRE
NATIONAL WEATHER SERVICE GRAY ME
1000 AM EST FRI FEB 27 2015

MEZ002-005-006-010-012-015-018-020-021-024-026-027-029-271600-
MAINE

CITY           SKY/WX    TMP DP  RH WIND       PRES   REMARKS
PORTLAND       SUNNY     19  -7  31 CALM      30.33S
SANFORD        SUNNY     12  -8  40 CALM      30.32S
BAR HARBOR     SUNNY     18  -6  35 N6        30.30F
WISCASSET      SUNNY     17  -8  32 VRB6      30.33R
ROCKLAND       SUNNY     16  -6  38 NW6       30.30S
FRYEBURG       SUNNY     16  -7  35 VRB5      30.29R
LEWISTONAUBURN SUNNY     14  -8  37 NW7       30.29S
AUGUSTA        SUNNY     13  -9  37 VRB5      30.29S
WATERVILLE     SUNNY     12  -8  40 W5        30.26S
BANGOR         MOSUNNY   11  -8  42 VRB3      30.29F
GREENVILLE       N/A      8 -10  43 VRB7G20   30.12R
MILLINOCKET    SUNNY     11  -8  42 VRB6      30.25S
HOULTON        SUNNY      8 -10  43 W10       30.19F WCI  -6
PRESQUE ISLE   SUNNY      7 -20  28 W12G18    30.18F WCI  -9
FRENCHVILLE    SUNNY      0 -11  59 SW9       30.09F
CARIBOU        SUNNY      4 -10  52 SW10      30.16S WCI -11
$$

NHZ002-005-008-009-011-012-014-271600-
NEW HAMPSHIRE

CITY           SKY/WX    TMP DP  RH WIND       PRES   REMARKS
PORTSMOUTH     SUNNY     16  -5  39 N2        30.33R
ROCHESTER      SUNNY     15  -6  39 VRB5      30.31R
NASHUA         SUNNY     16  -9  32 NW12      30.35S WCI   3
MANCHESTER     SUNNY     15  -7  37 NW12      30.33R WCI   2
CONCORD        SUNNY     14  -9  35 NW13      30.33R WCI   0
LACONIA        SUNNY     16  -8  35 SW9       30.28R
PLYMOUTH       FAIR      13  -4  45 W12       30.31R WCI   0
BERLIN         SUNNY      9 -11  40 VRB7      30.24S
WHITEFIELD     SUNNY      9 -11  40 N5        30.28R
JAFFREY        SUNNY     13 -10  35 VRB6      30.27R
KEENE          SUNNY     12  -6  44 N7        30.34R
LEBANON        SUNNY     10  -7  46 CALM      30.34R
MT WASHINGTON  NOT AVBL
$$

VTZ005-007-008-271600-
VERMONT

CITY           SKY/WX    TMP DP  RH WIND       PRES   REMARKS
ST JOHNSBURY     N/A      5  -9  52 MISG      30.32S
MONTPELIER     SUNNY      5 -10  50 NW5       30.32R
BURLINGTON     SUNNY     10  -9  42 S5        30.39R
$$

MAZ007-012-024-CTZ003-RIZ002-NYZ038-NYZ072-271600-
SOUTHERN NEW ENGLAND AND NY

CITY           SKY/WX    TMP DP  RH WIND       PRES   REMARKS
BOSTON         MOSUNNY   19  -4  36 NW10      30.35R WCI   7
WORCESTER      SUNNY     15  -4  42 NW10      30.26S WCI   2
NANTUCKET      SUNNY     24  11  57 N14       30.31R WCI  12
PROVIDENCE     MOSUNNY   20   3  48 N9        30.35R
HARTFORD       MOSUNNY   19   2  47 N7        30.37R
ALBANY         SUNNY     13  -6  42 NW8       30.42R
NEW YORK CITY  SUNNY     21   7  54 N9        30.40R
$$

ANZ081-ANZ082-ANZ150-NHZ014-MEZ023>029-271600-
COASTAL MARINE OBSERVATIONS

STATION/POSITION TIME  TEMP    WIND        PRES    WAVE
                       AIR SEA DIR/SP/G            HT/PER
                 (UTC) (F)     (DEG/KT/KT) (MB)    (FT/S)
MOUNT DESERT ROC 1500   14                 1025.7F
MATINICUS ROCK   1500   15     350/  9/ 10 1026.5S
WELLS            1400   14     360/  5/  7 1026.4R
ISLE OF SHOALS   1500   16     330/ 10/ 11 1026.5R
CASHES LEDGE BUO 1450   19 39              1025.9R   5/10
$$

.............KEY..............
   WCI - WIND CHILL
   TC  - TEMPERATURE IN CELSIUS
   VSB - VISIBILITY IN MILES
   HX  - HEAT INDEX
   FAIR- INDICATES FEW OR NO CLOUDS BELOW 12,000 FT, WITH NO
         SIGNIFICANT WEATHER AND/OR OBSTRUCTIONS TO VISIBILITY.





USA.gov is the U.S. government's official web portal to all federal, state and local government web resources and services.